This is the latest recevied weather packets stored in our database for station/object KE5VT. If no packets are shown the sender has not sent any weather packets the latest 10 day(s).
| Time | Temp. | Humidity | Pressure | Rain* | Wind** | Luminosity | Snow |
|---|---|---|---|---|---|---|---|
| 1777770650 | 11.11° C | 81% | 1009.9 hPa | 0 mm | - | 0 W/m² | - |
| 1777770346 | 11.11° C | 82% | 1009.9 hPa | 0 mm | - | 0 W/m² | - |
| 1777770044 | 11.67° C | 82% | 1009.9 hPa | 0 mm | - | 0 W/m² | - |
| 1777769740 | 11.67° C | 79% | 1009.6 hPa | 0 mm | - | 0 W/m² | - |
| 1777769438 | 11.67° C | 79% | 1009.6 hPa | 0 mm | - | 0 W/m² | - |
| 1777769133 | 11.67° C | 79% | 1009.4 hPa | 0 mm | - | 0 W/m² | - |
| 1777768832 | 11.67° C | 78% | 1009.4 hPa | 0 mm | - | 0 W/m² | - |
| 1777768528 | 11.67° C | 80% | 1009.4 hPa | 0 mm | - | 0 W/m² | - |
| 1777768226 | 12.22° C | 80% | 1009.1 hPa | 0 mm | - | 0 W/m² | - |
| 1777767923 | 12.22° C | 77% | 1009.3 hPa | 0 mm | - | 0 W/m² | - |
| 1777767619 | 12.22° C | 76% | 1009 hPa | 0 mm | - | 1 W/m² | - |
| 1777767316 | 12.78° C | 76% | 1009 hPa | 0 mm | - | 1 W/m² | - |
| 1777767013 | 12.78° C | 72% | 1008.8 hPa | 0 mm | - | 2 W/m² | - |
| 1777766710 | 12.78° C | 72% | 1008.8 hPa | 0 mm | - | 3 W/m² | - |
| 1777766407 | 12.78° C | 70% | 1008.8 hPa | 0 mm | - | 5 W/m² | - |
| 1777766104 | 13.33° C | 70% | 1008.8 hPa | 0 mm | - | 6 W/m² | - |
| 1777765801 | 13.33° C | 70% | 1008.5 hPa | 0 mm | - | 8 W/m² | - |
| 1777765497 | 13.33° C | 70% | 1008.5 hPa | 0 mm | - | 10 W/m² | - |
| 1777765195 | 13.33° C | 70% | 1008.6 hPa | 0 mm | - | 12 W/m² | - |
| 1777764890 | 13.89° C | 69% | 1008.3 hPa | 0 mm | - | 15 W/m² | - |
| 1777764587 | 13.89° C | 70% | 1008.4 hPa | 0 mm | - | 18 W/m² | - |
| 1777764283 | 13.89° C | 69% | 1008.5 hPa | 0 mm | - | 19 W/m² | - |
| 1777763980 | 13.89° C | 69% | 1008.3 hPa | 0 mm | - | 21 W/m² | - |
| 1777763678 | 13.89° C | 68% | 1008.3 hPa | 0 mm | - | 22 W/m² | - |
| 1777763376 | 13.89° C | 69% | 1008.4 hPa | 0 mm | - | 24 W/m² | - |
* Rain latest hour (hover to see other rain measurements)
** Current wind speed in m/s (hover to see current wind gust speed)